Back to catalog

STARLINK-34466

AliveCommunicationsVLEO
NORAD 66226·PAYLOAD·🇺🇸 United States

Launched Oct 28, 2025 from Vandenberg Space Force Base

Loading…

Next Passes (next 24 hours)

TLE

FreshSource: CelesTrak SupGP

Epoch: Sep 14, 2026, 14:25 UTC

1 66226C 25244W   26257.60118056 -.00025218  00000+0 -74495-3 0  2576
2 66226  53.1584  69.0537 0001047  90.0770 151.4499 15.34408658    13

Track STARLINK-34466 in real time with AllMySat

Download on the App Store